• In Russia
  • List of Countries
  • For 7 days
  • Water Temperature
  • Satellite Maps
  • Weather Map
  • Weather Widgets
  • user-avatar
    Login

    Hourly Weather Tula

    Today, 23 April, Monday

    Time Temperature Precipitation Wind Pressure Humidity
    00:00 -1°C° 0 mm 3 mps 735 mmHg 75%
    01:00 -1°C° 0 mm 3 mps 735 mmHg 76%
    02:00 -2°C° 0 mm 3 mps 735 mmHg 77%
    03:00 -3°C° 0 mm 4 mps 736 mmHg 76%
    04:00 -3°C° 0 mm 4 mps 736 mmHg 76%
    05:00 -3°C° 0 mm 4 mps 737 mmHg 75%
    06:00 -2°C° 0 mm 5 mps 737 mmHg 67%
    07:00 -1°C° 0 mm 5 mps 738 mmHg 58%
    08:00 -1°C° 0 mm 6 mps 738 mmHg 49%
    09:00 +1°C° 0 mm 6 mps 738 mmHg 47%
    10:00 +2°C° 0 mm 5 mps 738 mmHg 44%
    11:00 +3°C° 0 mm 5 mps 738 mmHg 42%
    12:00 +5°C° 0 mm 5 mps 738 mmHg 42%
    13:00 +5°C° 0 mm 5 mps 739 mmHg 41%
    14:00 +6°C° 0 mm 5 mps 739 mmHg 41%
    15:00 +6°C° 0 mm 5 mps 739 mmHg 42%
    16:00 +5°C° 0 mm 4 mps 739 mmHg 44%
    17:00 +5°C° 0 mm 4 mps 739 mmHg 45%
    18:00 +4°C° 0 mm 3 mps 739 mmHg 50%
    19:00 +3°C° 0 mm 3 mps 739 mmHg 56%
    20:00 +2°C° 0 mm 2 mps 740 mmHg 61%
    21:00 +3°C° 0 mm 1 mps 740 mmHg 62%
    22:00 +2°C° 0 mm 1 mps 740 mmHg 63%
    23:00 +2°C° 0 mm 1 mps 740 mmHg 65%

    Tomorrow, 24 April, Tuesday

    Time Temperature Precipitation Wind Pressure Humidity
    00:00 +1°C° 0 mm 1 mps 740 mmHg 65%
    01:00 +1°C° 0 mm 1 mps 740 mmHg 65%
    02:00 +1°C° 0 mm 1 mps 740 mmHg 66%
    03:00 +1°C° 0 mm 1 mps 740 mmHg 65%
    04:00 +1°C° 0 mm 1 mps 740 mmHg 65%
    05:00 +1°C° 0 mm 1 mps 740 mmHg 65%
    06:00 +3°C° 0 mm 1 mps 740 mmHg 59%
    07:00 +4°C° 0 mm 2 mps 740 mmHg 53%
    08:00 +6°C° 0 mm 2 mps 740 mmHg 48%
    09:00 +7°C° 0 mm 2 mps 739 mmHg 45%
    10:00 +8°C° 0 mm 3 mps 739 mmHg 41%
    11:00 +9°C° 0 mm 3 mps 739 mmHg 38%
    12:00 +10°C° 0 mm 3 mps 738 mmHg 39%
    13:00 +10°C° 0 mm 3 mps 738 mmHg 40%
    14:00 +11°C° 0 mm 4 mps 737 mmHg 41%
    15:00 +10°C° 0 mm 3 mps 737 mmHg 47%
    16:00 +10°C° 0 mm 3 mps 737 mmHg 53%
    17:00 +9°C° 0 mm 3 mps 736 mmHg 59%
    18:00 +8°C° 0.2 mm 2 mps 736 mmHg 66%
    19:00 +7°C° 0.2 mm 2 mps 736 mmHg 74%
    20:00 +6°C° 0.2 mm 2 mps 736 mmHg 81%
    21:00 +6°C° 0.2 mm 2 mps 735 mmHg 83%
    22:00 +6°C° 0.2 mm 2 mps 735 mmHg 86%
    23:00 +5°C° 0.2 mm 3 mps 735 mmHg 89%

    Day after tomorrow, 25 April, Wednesday

    Time Temperature Precipitation Wind Pressure Humidity
    00:00 +5°C° 0.2 mm 3 mps 735 mmHg 90%
    01:00 +5°C° 0.2 mm 3 mps 734 mmHg 92%
    02:00 +5°C° 0.2 mm 3 mps 734 mmHg 93%
    03:00 +5°C° 0.2 mm 3 mps 734 mmHg 94%
    04:00 +5°C° 0.2 mm 3 mps 734 mmHg 95%
    05:00 +5°C° 0.2 mm 3 mps 734 mmHg 96%
    06:00 +7°C° 0.1 mm 3 mps 734 mmHg 93%
    07:00 +7°C° 0.1 mm 3 mps 734 mmHg 91%
    08:00 +8°C° 0.1 mm 3 mps 734 mmHg 89%
    09:00 +8°C° 0 mm 4 mps 734 mmHg 85%
    10:00 +8°C° 0 mm 4 mps 734 mmHg 80%
    11:00 +10°C° 0 mm 4 mps 735 mmHg 76%
    12:00 +10°C° 0 mm 5 mps 734 mmHg 72%
    13:00 +12°C° 0 mm 5 mps 734 mmHg 68%
    14:00 +13°C° 0 mm 5 mps 734 mmHg 64%
    15:00 +13°C° 0 mm 5 mps 734 mmHg 68%
    16:00 +12°C° 0 mm 4 mps 734 mmHg 71%
    17:00 +12°C° 0 mm 4 mps 734 mmHg 75%
    18:00 +11°C° 0 mm 4 mps 734 mmHg 80%
    19:00 +10°C° 0 mm 4 mps 734 mmHg 85%
    20:00 +8°C° 0 mm 4 mps 734 mmHg 89%
    21:00 +8°C° 0 mm 4 mps 734 mmHg 90%
    22:00 +8°C° 0 mm 4 mps 733 mmHg 91%
    23:00 +8°C° 0 mm 4 mps 733 mmHg 92%

    26 April, Thursday

    Time Temperature Precipitation Wind Pressure Humidity
    00:00 +8°C° 0.3 mm 5 mps 733 mmHg 93%
    01:00 +8°C° 0.3 mm 5 mps 732 mmHg 94%
    02:00 +8°C° 0.3 mm 5 mps 732 mmHg 94%
    03:00 +9°C° 0.7 mm 5 mps 732 mmHg 95%
    04:00 +9°C° 0.7 mm 5 mps 732 mmHg 95%
    05:00 +9°C° 0.7 mm 5 mps 731 mmHg 95%
    06:00 +10°C° 0.8 mm 4 mps 731 mmHg 93%
    07:00 +10°C° 0.8 mm 4 mps 731 mmHg 91%
    08:00 +8°C° 0.8 mm 4 mps 731 mmHg 89%
    09:00 +10°C° 0.3 mm 4 mps 732 mmHg 84%
    10:00 +10°C° 0.3 mm 4 mps 732 mmHg 78%
    11:00 +10°C° 0.3 mm 5 mps 732 mmHg 73%
    12:00 +12°C° 0 mm 5 mps 733 mmHg 66%
    13:00 +11°C° 0 mm 6 mps 733 mmHg 59%
    14:00 +12°C° 0 mm 7 mps 733 mmHg 52%
    15:00 +13°C° 0.1 mm 6 mps 733 mmHg 54%
    16:00 +13°C° 0.1 mm 6 mps 734 mmHg 55%
    17:00 +12°C° 0.1 mm 5 mps 734 mmHg 56%
    18:00 +10°C° 0 mm 5 mps 735 mmHg 61%
    19:00 +10°C° 0 mm 4 mps 735 mmHg 66%
    20:00 +7°C° 0 mm 4 mps 736 mmHg 70%
    21:00 +7°C° 0 mm 4 mps 736 mmHg 72%
    22:00 +6°C° 0 mm 4 mps 737 mmHg 73%
    23:00 +6°C° 0 mm 4 mps 737 mmHg 75%

    27 April, Friday

    Time Temperature Precipitation Wind Pressure Humidity
    00:00 +6°C° 0 mm 4 mps 737 mmHg 77%
    01:00 +5°C° 0 mm 4 mps 737 mmHg 79%
    02:00 +5°C° 0 mm 3 mps 737 mmHg 81%
    03:00 +6°C° 0.1 mm 4 mps 737 mmHg 79%
    04:00 +6°C° 0.1 mm 5 mps 737 mmHg 78%
    05:00 +7°C° 0.1 mm 6 mps 737 mmHg 76%
    06:00 +8°C° 0 mm 6 mps 738 mmHg 75%
    07:00 +9°C° 0 mm 6 mps 738 mmHg 73%
    08:00 +10°C° 0 mm 7 mps 738 mmHg 72%
    09:00 +10°C° 0 mm 7 mps 739 mmHg 66%
    10:00 +11°C° 0 mm 7 mps 739 mmHg 59%
    11:00 +12°C° 0 mm 7 mps 739 mmHg 53%
    12:00 +12°C° 0 mm 7 mps 740 mmHg 51%
    13:00 +14°C° 0 mm 6 mps 740 mmHg 48%
    14:00 +14°C° 0 mm 6 mps 740 mmHg 45%
    15:00 +14°C° 0 mm 5 mps 741 mmHg 48%
    16:00 +14°C° 0 mm 5 mps 741 mmHg 51%
    17:00 +13°C° 0 mm 4 mps 741 mmHg 54%
    18:00 +12°C° 0 mm 3 mps 741 mmHg 60%
    19:00 +11°C° 0 mm 3 mps 741 mmHg 66%
    20:00 +9°C° 0 mm 3 mps 742 mmHg 72%
    21:00 +9°C° 0 mm 3 mps 742 mmHg 75%
    22:00 +9°C° 0 mm 3 mps 742 mmHg 78%
    23:00 +8°C° 0 mm 3 mps 743 mmHg 81%

    28 April, Saturday

    Time Temperature Precipitation Wind Pressure Humidity
    00:00 +8°C° 0 mm 3 mps 743 mmHg 83%
    01:00 +7°C° 0 mm 3 mps 743 mmHg 86%
    02:00 +6°C° 0 mm 2 mps 744 mmHg 89%
    03:00 +6°C° 0 mm 2 mps 744 mmHg 88%
    04:00 +6°C° 0 mm 2 mps 744 mmHg 87%
    05:00 +6°C° 0 mm 2 mps 745 mmHg 86%
    06:00 +8°C° 0 mm 2 mps 745 mmHg 78%
    07:00 +9°C° 0 mm 2 mps 745 mmHg 69%
    08:00 +12°C° 0 mm 1 mps 746 mmHg 61%
    09:00 +13°C° 0 mm 2 mps 746 mmHg 55%
    10:00 +15°C° 0 mm 2 mps 746 mmHg 49%
    11:00 +16°C° 0 mm 2 mps 746 mmHg 43%
    12:00 +16°C° 0 mm 2 mps 746 mmHg 41%
    13:00 +17°C° 0 mm 2 mps 746 mmHg 40%
    14:00 +17°C° 0 mm 3 mps 745 mmHg 38%
    15:00 +17°C° 0 mm 2 mps 745 mmHg 41%
    16:00 +17°C° 0 mm 2 mps 745 mmHg 44%
    17:00 +18°C° 0 mm 1 mps 745 mmHg 47%
    18:00 +15°C° 0 mm 1 mps 745 mmHg 50%
    19:00 +14°C° 0 mm 1 mps 745 mmHg 53%
    20:00 +12°C° 0 mm 1 mps 745 mmHg 57%
    21:00 +12°C° 0 mm 2 mps 744 mmHg 58%
    22:00 +12°C° 0 mm 2 mps 744 mmHg 59%
    23:00 +12°C° 0 mm 2 mps 744 mmHg 60%
    Show more